Overview Statistics Trail Chart Weather Telemetry Raw packets
 

This is the latest recevied weather packets stored in our database for station/object KO4DYK. If no packets are shown the sender has not sent any weather packets the latest 10 day(s).

<< 107 108 109 110 111 112 113 >>
Time Temp. Humidity Pressure Rain* Wind** Luminosity Snow
1787845488 29.44° C 79% 1017.8 hPa 0 mm - 619 W/m² -
1787845184 28.89° C 82% 1017.9 hPa 0 mm - 618 W/m² -
1787844879 28.33° C 84% 1017.8 hPa 0 mm - 623 W/m² -
1787844578 27.78° C 87% 1017.9 hPa 0 mm - 579 W/m² -
1787844274 28.33° C 85% 1017.8 hPa 0 mm - 513 W/m² -
1787843972 28.89° C 83% 1017.9 hPa 0 mm - 491 W/m² -
1787843667 28.89° C 84% 1018 hPa 0 mm - 531 W/m² -
1787843364 28.33° C 85% 1017.8 hPa 0 mm - 532 W/m² -
1787843060 28.33° C 85% 1017.8 hPa 0 mm - 510 W/m² -
1787842759 27.78° C 86% 1017.7 hPa 0 mm - 412 W/m² -
1787842454 27.22° C 88% 1017.6 hPa 0 mm - 490 W/m² -
1787842149 27.22° C 90% 1017.8 hPa 0 mm - 489 W/m² -
1787841844 26.11° C 94% 1017.8 hPa 0 mm - 492 W/m² -
1787841540 25.56° C 93% 1017.6 hPa 0 mm - 425 W/m² -
1787841239 26.11° C 93% 1017.8 hPa 0 mm - 357 W/m² -
1787840934 25.56° C 95% 1017.9 hPa 0 mm - 262 W/m² -
1787840629 25° C 97% 1017.9 hPa 0 mm - 297 W/m² -
1787840325 25° C 99% 1017.7 hPa 0 mm - 262 W/m² -
1787840025 24.44° C 99% 1017.5 hPa 0 mm - 243 W/m² -
1787839724 23.89° C 99% 1017.6 hPa 0 mm - 245 W/m² -
1787839419 23.33° C 99% 1017.2 hPa 0 mm - 252 W/m² -
1787839119 22.78° C 99% 1017.2 hPa 0 mm - 225 W/m² -
1787838818 22.78° C 99% 1017.4 hPa 0 mm - 179 W/m² -
1787838513 22.78° C 99% 1017.5 hPa 0 mm - 166 W/m² -
1787838212 22.78° C 99% 1017.5 hPa 0 mm - 146 W/m² -

* Rain latest hour (hover to see other rain measurements)
** Current wind speed in m/s (hover to see current wind gust speed)